Year,Month,Day,Hour,Minute,Value (Times are PST for temperature in C)
2013,09,11,00,00,18.30
2013,09,11,00,01,18.40
2013,09,11,00,02,18.40
2013,09,11,00,03,18.40
2013,09,11,00,04,18.40
2013,09,11,00,05,18.40
2013,09,11,00,06,18.50
2013,09,11,00,07,18.50
2013,09,11,00,08,18.50
2013,09,11,00,09,18.60
2013,09,11,00,10,18.60
2013,09,11,00,11,18.60
2013,09,11,00,12,18.60
2013,09,11,00,13,18.60
2013,09,11,00,14,18.60
2013,09,11,00,15,18.60
2013,09,11,00,16,18.60
2013,09,11,00,17,18.60
2013,09,11,00,18,18.70
2013,09,11,00,19,18.70
2013,09,11,00,20,18.70
2013,09,11,00,21,18.70
2013,09,11,00,22,18.70
2013,09,11,00,23,18.70
2013,09,11,00,24,18.70
2013,09,11,00,25,18.70
2013,09,11,00,26,18.70
2013,09,11,00,27,18.70
2013,09,11,00,28,18.60
2013,09,11,00,29,18.60
2013,09,11,00,30,18.60
2013,09,11,00,31,18.60
2013,09,11,00,32,18.60
2013,09,11,00,33,18.60
2013,09,11,00,34,18.50
2013,09,11,00,35,18.50
2013,09,11,00,36,18.50
2013,09,11,00,37,18.50
2013,09,11,00,38,18.40
2013,09,11,00,39,18.40
2013,09,11,00,40,18.40
2013,09,11,00,41,18.40
2013,09,11,00,42,18.40
2013,09,11,00,43,18.40
2013,09,11,00,44,18.40
2013,09,11,00,45,18.30
2013,09,11,00,46,18.30
2013,09,11,00,47,18.30
2013,09,11,00,48,18.30
2013,09,11,00,49,18.20
2013,09,11,00,50,18.20
2013,09,11,00,51,18.20
2013,09,11,00,52,18.10
2013,09,11,00,53,18.10
2013,09,11,00,54,18.10
2013,09,11,00,55,18.00
2013,09,11,00,56,18.00
2013,09,11,00,57,18.00
2013,09,11,00,58,18.00
2013,09,11,00,59,18.00
2013,09,11,01,00,18.00
2013,09,11,01,01,18.10
2013,09,11,01,02,18.10
2013,09,11,01,03,18.10
2013,09,11,01,04,18.10
2013,09,11,01,05,18.20
2013,09,11,01,06,18.20
2013,09,11,01,07,18.20
2013,09,11,01,08,18.20
2013,09,11,01,09,18.20
2013,09,11,01,10,18.20
2013,09,11,01,11,18.30
2013,09,11,01,12,18.30
2013,09,11,01,13,18.30
2013,09,11,01,14,18.30
2013,09,11,01,15,18.30
2013,09,11,01,16,18.30
2013,09,11,01,17,18.30
2013,09,11,01,18,18.30
2013,09,11,01,19,18.30
2013,09,11,01,20,18.30
2013,09,11,01,21,18.30
2013,09,11,01,22,18.30
2013,09,11,01,23,18.30
2013,09,11,01,24,18.30
2013,09,11,01,25,18.30
2013,09,11,01,26,18.30
2013,09,11,01,27,18.30
2013,09,11,01,28,18.40
2013,09,11,01,29,18.40
2013,09,11,01,30,18.40
2013,09,11,01,31,18.40
2013,09,11,01,32,18.40
2013,09,11,01,33,18.50
2013,09,11,01,34,18.50
2013,09,11,01,35,18.50
2013,09,11,01,36,18.50
2013,09,11,01,37,18.40
2013,09,11,01,38,18.40
2013,09,11,01,39,18.40
2013,09,11,01,40,18.40
2013,09,11,01,41,18.40
2013,09,11,01,42,18.40
2013,09,11,01,43,18.40
2013,09,11,01,44,18.40
2013,09,11,01,45,18.40
2013,09,11,01,46,18.40
2013,09,11,01,47,18.40
2013,09,11,01,48,18.40
2013,09,11,01,49,18.40
2013,09,11,01,50,18.40
2013,09,11,01,51,18.40
2013,09,11,01,52,18.40
2013,09,11,01,53,18.40
2013,09,11,01,54,18.40
2013,09,11,01,55,18.40
2013,09,11,01,56,18.40
2013,09,11,01,57,18.30
2013,09,11,01,58,18.30
2013,09,11,01,59,18.30
2013,09,11,02,00,18.30
2013,09,11,02,01,18.30
2013,09,11,02,02,18.30
2013,09,11,02,03,18.30
2013,09,11,02,04,18.20
2013,09,11,02,05,18.20
2013,09,11,02,06,18.20
2013,09,11,02,07,18.20
2013,09,11,02,08,18.20
2013,09,11,02,09,18.20
2013,09,11,02,10,18.20
2013,09,11,02,11,18.20
2013,09,11,02,12,18.20
2013,09,11,02,13,18.20
2013,09,11,02,14,18.20
2013,09,11,02,15,18.20
2013,09,11,02,16,18.20
2013,09,11,02,17,18.20
2013,09,11,02,18,18.20
2013,09,11,02,19,18.20
2013,09,11,02,20,18.20
2013,09,11,02,21,18.20
2013,09,11,02,22,18.20
2013,09,11,02,23,18.10
2013,09,11,02,24,18.10
2013,09,11,02,25,18.10
2013,09,11,02,26,18.10
2013,09,11,02,27,18.10
2013,09,11,02,28,18.10
2013,09,11,02,29,18.10
2013,09,11,02,30,18.10
2013,09,11,02,31,18.00
2013,09,11,02,32,18.00
2013,09,11,02,33,18.00
2013,09,11,02,34,18.00
2013,09,11,02,35,17.90
2013,09,11,02,36,17.90
2013,09,11,02,37,17.90
2013,09,11,02,38,17.80
2013,09,11,02,39,17.80
2013,09,11,02,40,17.80
2013,09,11,02,41,17.80
2013,09,11,02,42,17.70
2013,09,11,02,43,17.70
2013,09,11,02,44,17.70
2013,09,11,02,45,17.70
2013,09,11,02,46,17.70
2013,09,11,02,47,17.60
2013,09,11,02,48,17.60
2013,09,11,02,49,17.60
2013,09,11,02,50,17.60
2013,09,11,02,51,17.60
2013,09,11,02,52,17.60
2013,09,11,02,53,17.60
2013,09,11,02,54,17.60
2013,09,11,02,55,17.60
2013,09,11,02,56,17.60
2013,09,11,02,57,17.60
2013,09,11,02,58,17.60
2013,09,11,02,59,17.60
2013,09,11,03,00,17.60
2013,09,11,03,01,17.60
2013,09,11,03,02,17.50
2013,09,11,03,03,17.50
2013,09,11,03,04,17.60
2013,09,11,03,05,17.60
2013,09,11,03,06,17.60
2013,09,11,03,07,17.60
2013,09,11,03,08,17.60
2013,09,11,03,09,17.60
2013,09,11,03,10,17.60
2013,09,11,03,11,17.60
2013,09,11,03,12,17.60
2013,09,11,03,13,17.60
2013,09,11,03,14,17.60
2013,09,11,03,15,17.60
2013,09,11,03,16,17.60
2013,09,11,03,17,17.60
2013,09,11,03,18,17.70
2013,09,11,03,19,17.70
2013,09,11,03,20,17.70
2013,09,11,03,21,17.70
2013,09,11,03,22,17.60
2013,09,11,03,23,17.60
2013,09,11,03,24,17.60
2013,09,11,03,25,17.60
2013,09,11,03,26,17.60
2013,09,11,03,27,17.70
2013,09,11,03,28,17.70
2013,09,11,03,29,17.70
2013,09,11,03,30,17.70
2013,09,11,03,31,17.80
2013,09,11,03,32,17.80
2013,09,11,03,33,17.80
2013,09,11,03,34,17.80
2013,09,11,03,35,17.90
2013,09,11,03,36,17.90
2013,09,11,03,37,17.90
2013,09,11,03,38,17.90
2013,09,11,03,39,17.90
2013,09,11,03,40,18.00
2013,09,11,03,41,18.00
2013,09,11,03,42,18.00
2013,09,11,03,43,18.10
2013,09,11,03,44,18.10
2013,09,11,03,45,18.10
2013,09,11,03,46,18.20
2013,09,11,03,47,18.20
2013,09,11,03,48,18.20
2013,09,11,03,49,18.30
2013,09,11,03,50,18.30
2013,09,11,03,51,18.40
2013,09,11,03,52,18.40
2013,09,11,03,53,18.50
2013,09,11,03,54,18.50
2013,09,11,03,55,18.50
2013,09,11,03,56,18.60
2013,09,11,03,57,18.60
2013,09,11,03,58,18.60
2013,09,11,03,59,18.60
2013,09,11,04,00,18.60
2013,09,11,04,01,18.60
2013,09,11,04,02,18.60
2013,09,11,04,03,18.70
2013,09,11,04,04,18.70
2013,09,11,04,05,18.70
2013,09,11,04,06,18.70
2013,09,11,04,07,18.70
2013,09,11,04,08,18.70
2013,09,11,04,09,18.70
2013,09,11,04,10,18.60
2013,09,11,04,11,18.60
2013,09,11,04,12,18.60
2013,09,11,04,13,18.60
2013,09,11,04,14,18.60
2013,09,11,04,15,18.60
2013,09,11,04,16,18.60
2013,09,11,04,17,18.50
2013,09,11,04,18,18.50
2013,09,11,04,19,18.50
2013,09,11,04,20,18.50
2013,09,11,04,21,18.50
2013,09,11,04,22,18.50
2013,09,11,04,23,18.40
2013,09,11,04,24,18.40
2013,09,11,04,25,18.40
2013,09,11,04,26,18.40
2013,09,11,04,27,18.30
2013,09,11,04,28,18.30
2013,09,11,04,29,18.30
2013,09,11,04,30,18.30
2013,09,11,04,31,18.30
2013,09,11,04,32,18.30
2013,09,11,04,33,18.30
2013,09,11,04,34,18.30
2013,09,11,04,35,18.30
2013,09,11,04,36,18.30
2013,09,11,04,37,18.30
2013,09,11,04,38,18.30
2013,09,11,04,39,18.30
2013,09,11,04,40,18.30
2013,09,11,04,41,18.30
2013,09,11,04,42,18.30
2013,09,11,04,43,18.30
2013,09,11,04,44,18.30
2013,09,11,04,45,18.40
2013,09,11,04,46,18.40
2013,09,11,04,47,18.40
2013,09,11,04,48,18.40
2013,09,11,04,49,18.40
2013,09,11,04,50,18.40
2013,09,11,04,51,18.40
2013,09,11,04,52,18.40
2013,09,11,04,53,18.50
2013,09,11,04,54,18.50
2013,09,11,04,55,18.50
2013,09,11,04,56,18.50
2013,09,11,04,57,18.50
2013,09,11,04,58,18.60
2013,09,11,04,59,18.60
2013,09,11,05,00,18.60
2013,09,11,05,01,18.60
2013,09,11,05,02,18.60
2013,09,11,05,03,18.60
2013,09,11,05,04,18.60
2013,09,11,05,05,18.60
2013,09,11,05,06,18.50
2013,09,11,05,07,18.50
2013,09,11,05,08,18.50
2013,09,11,05,09,18.50
2013,09,11,05,10,18.40
2013,09,11,05,11,18.40
2013,09,11,05,12,18.40
2013,09,11,05,13,18.40
2013,09,11,05,14,18.40
2013,09,11,05,15,18.40
2013,09,11,05,16,18.40
2013,09,11,05,17,18.40
2013,09,11,05,18,18.40
2013,09,11,05,19,18.40
2013,09,11,05,20,18.40
2013,09,11,05,21,18.40
2013,09,11,05,22,18.40
2013,09,11,05,23,18.40
2013,09,11,05,24,18.40
2013,09,11,05,25,18.40
2013,09,11,05,26,18.40
2013,09,11,05,27,18.40
2013,09,11,05,28,18.40
2013,09,11,05,29,18.40
2013,09,11,05,30,18.40
2013,09,11,05,31,18.40
2013,09,11,05,32,18.40
2013,09,11,05,33,18.40
2013,09,11,05,34,18.50
2013,09,11,05,35,18.50
2013,09,11,05,36,18.50
2013,09,11,05,37,18.50
2013,09,11,05,38,18.50
2013,09,11,05,39,18.50
2013,09,11,05,40,18.50
2013,09,11,05,41,18.50
2013,09,11,05,42,18.40
2013,09,11,05,43,18.40
2013,09,11,05,44,18.40
2013,09,11,05,45,18.40
2013,09,11,05,46,18.40
2013,09,11,05,47,18.30
2013,09,11,05,48,18.30
2013,09,11,05,49,18.30
2013,09,11,05,50,18.20
2013,09,11,05,51,18.20
2013,09,11,05,52,18.20
2013,09,11,05,53,18.10
2013,09,11,05,54,18.10
2013,09,11,05,55,18.00
2013,09,11,05,56,18.00
2013,09,11,05,57,18.00
2013,09,11,05,58,18.00
2013,09,11,05,59,18.00
2013,09,11,06,00,18.00
2013,09,11,06,01,18.00
2013,09,11,06,02,18.00
2013,09,11,06,03,18.00
2013,09,11,06,04,18.00
2013,09,11,06,05,18.00
2013,09,11,06,06,18.00
2013,09,11,06,07,18.00
2013,09,11,06,08,17.90
2013,09,11,06,09,17.90
2013,09,11,06,10,17.90
2013,09,11,06,11,17.90
2013,09,11,06,12,17.90
2013,09,11,06,13,17.80
2013,09,11,06,14,17.80
2013,09,11,06,15,17.80
2013,09,11,06,16,17.80
2013,09,11,06,17,17.80
2013,09,11,06,18,17.80
2013,09,11,06,19,17.80
2013,09,11,06,20,17.80
2013,09,11,06,21,17.80
2013,09,11,06,22,17.80
2013,09,11,06,23,17.80
2013,09,11,06,24,17.80
2013,09,11,06,25,17.80
2013,09,11,06,26,17.80
2013,09,11,06,27,17.80
2013,09,11,06,28,17.80
2013,09,11,06,29,17.80
2013,09,11,06,30,17.80
2013,09,11,06,31,17.80
2013,09,11,06,32,17.80
2013,09,11,06,33,17.80
2013,09,11,06,34,17.80
2013,09,11,06,35,17.80
2013,09,11,06,36,17.80
2013,09,11,06,37,17.80
2013,09,11,06,38,17.80
2013,09,11,06,39,17.80
2013,09,11,06,40,17.70
2013,09,11,06,41,17.70
2013,09,11,06,42,17.70
2013,09,11,06,43,17.70
2013,09,11,06,44,17.60
2013,09,11,06,45,17.60
2013,09,11,06,46,17.60
2013,09,11,06,47,17.50
2013,09,11,06,48,17.50
2013,09,11,06,49,17.50
2013,09,11,06,50,17.40
2013,09,11,06,51,17.40
2013,09,11,06,52,17.40
2013,09,11,06,53,17.40
2013,09,11,06,54,17.40
2013,09,11,06,55,17.40
2013,09,11,06,56,17.40
2013,09,11,06,57,17.40
2013,09,11,06,58,17.40
2013,09,11,06,59,17.40
2013,09,11,07,00,17.40
2013,09,11,07,01,17.40
2013,09,11,07,02,17.40
2013,09,11,07,03,17.40
2013,09,11,07,04,17.40
2013,09,11,07,05,17.50
2013,09,11,07,06,17.50
2013,09,11,07,07,17.50
2013,09,11,07,08,17.50
2013,09,11,07,09,17.60
2013,09,11,07,10,17.60
2013,09,11,07,11,17.60
2013,09,11,07,12,17.60
2013,09,11,07,13,17.70
2013,09,11,07,14,17.70
2013,09,11,07,15,17.70
2013,09,11,07,16,17.70
2013,09,11,07,17,17.80
2013,09,11,07,18,17.80
2013,09,11,07,19,17.80
2013,09,11,07,20,17.80
2013,09,11,07,21,17.80
2013,09,11,07,22,17.70
2013,09,11,07,23,17.70
2013,09,11,07,24,17.70
2013,09,11,07,25,17.70
2013,09,11,07,26,17.70
2013,09,11,07,27,17.70
2013,09,11,07,28,17.70
2013,09,11,07,29,17.70
2013,09,11,07,30,17.70
2013,09,11,07,31,17.70
2013,09,11,07,32,17.70
2013,09,11,07,33,17.70
2013,09,11,07,34,17.70
2013,09,11,07,35,17.70
2013,09,11,07,36,17.70
2013,09,11,07,37,17.70
2013,09,11,07,38,17.70
2013,09,11,07,39,17.70
2013,09,11,07,40,17.70
2013,09,11,07,41,17.70
2013,09,11,07,42,17.80
2013,09,11,07,43,17.80
2013,09,11,07,44,17.80
2013,09,11,07,45,17.80
2013,09,11,07,46,17.80
2013,09,11,07,47,17.80
2013,09,11,07,48,17.90
2013,09,11,07,49,17.90
2013,09,11,07,50,17.90
2013,09,11,07,51,17.90
2013,09,11,07,52,18.00
2013,09,11,07,53,18.00
2013,09,11,07,54,18.00
2013,09,11,07,55,18.10
2013,09,11,07,56,18.10
2013,09,11,07,57,18.10
2013,09,11,07,58,18.10
2013,09,11,07,59,18.20
2013,09,11,08,00,18.20
2013,09,11,08,01,18.30
2013,09,11,08,02,18.30
2013,09,11,08,03,18.30
2013,09,11,08,04,18.40
2013,09,11,08,05,18.50
2013,09,11,08,06,18.50
2013,09,11,08,07,18.60
2013,09,11,08,08,18.60
2013,09,11,08,09,18.70
2013,09,11,08,10,18.70
2013,09,11,08,11,18.70
2013,09,11,08,12,18.80
2013,09,11,08,13,18.80
2013,09,11,08,14,18.90
2013,09,11,08,15,18.90
2013,09,11,08,16,18.90
2013,09,11,08,17,19.00
2013,09,11,08,18,19.10
2013,09,11,08,19,19.10
2013,09,11,08,20,19.10
2013,09,11,08,21,19.10
2013,09,11,08,22,19.20
2013,09,11,08,23,19.20
2013,09,11,08,24,19.20
2013,09,11,08,25,19.30
2013,09,11,08,26,19.30
2013,09,11,08,27,19.30
2013,09,11,08,28,19.30
2013,09,11,08,29,19.30
2013,09,11,08,30,19.30
2013,09,11,08,31,19.30
2013,09,11,08,32,19.30
2013,09,11,08,33,19.30
2013,09,11,08,34,19.30
2013,09,11,08,35,19.30
2013,09,11,08,36,19.30
2013,09,11,08,37,19.40
2013,09,11,08,38,19.40
2013,09,11,08,39,19.40
2013,09,11,08,40,19.40
2013,09,11,08,41,19.50
2013,09,11,08,42,19.50
2013,09,11,08,43,19.50
2013,09,11,08,44,19.60
2013,09,11,08,45,19.60
2013,09,11,08,46,19.70
2013,09,11,08,47,19.70
2013,09,11,08,48,19.80
2013,09,11,08,49,19.80
2013,09,11,08,50,19.90
2013,09,11,08,51,19.90
2013,09,11,08,52,20.00
2013,09,11,08,53,20.00
2013,09,11,08,54,20.10
2013,09,11,08,55,20.20
2013,09,11,08,56,20.30
2013,09,11,08,57,20.40
2013,09,11,08,58,20.40
2013,09,11,08,59,20.50
2013,09,11,09,00,20.60
2013,09,11,09,01,20.70
2013,09,11,09,02,20.70
2013,09,11,09,03,20.80
2013,09,11,09,04,20.90
2013,09,11,09,05,20.90
2013,09,11,09,06,21.00
2013,09,11,09,07,21.10
2013,09,11,09,08,21.10
2013,09,11,09,09,21.20
2013,09,11,09,10,21.20
2013,09,11,09,11,21.20
2013,09,11,09,12,21.30
2013,09,11,09,13,21.30
2013,09,11,09,14,21.30
2013,09,11,09,15,21.30
2013,09,11,09,16,21.30
2013,09,11,09,17,21.30
2013,09,11,09,18,21.40
2013,09,11,09,19,21.40
2013,09,11,09,20,21.40
2013,09,11,09,21,21.40
2013,09,11,09,22,21.50
2013,09,11,09,23,21.50
2013,09,11,09,24,21.60
2013,09,11,09,25,21.60
2013,09,11,09,26,21.70
2013,09,11,09,27,21.70
2013,09,11,09,28,21.80
2013,09,11,09,29,21.80
2013,09,11,09,30,21.80
2013,09,11,09,31,21.80
2013,09,11,09,32,21.90
2013,09,11,09,33,21.90
2013,09,11,09,34,21.90
2013,09,11,09,35,21.90
2013,09,11,09,36,22.00
2013,09,11,09,37,22.00
2013,09,11,09,38,22.00
2013,09,11,09,39,22.10
2013,09,11,09,40,22.10
2013,09,11,09,41,22.20
2013,09,11,09,42,22.20
2013,09,11,09,43,22.30
2013,09,11,09,44,22.30
2013,09,11,09,45,22.30
2013,09,11,09,46,22.40
2013,09,11,09,47,22.50
2013,09,11,09,48,22.50
2013,09,11,09,49,22.60
2013,09,11,09,50,22.60
2013,09,11,09,51,22.70
2013,09,11,09,52,22.70
2013,09,11,09,53,22.70
2013,09,11,09,54,22.80
2013,09,11,09,55,22.80
2013,09,11,09,56,22.90
2013,09,11,09,57,22.90
2013,09,11,09,58,22.90
2013,09,11,09,59,22.90
2013,09,11,10,00,23.00
2013,09,11,10,01,23.00
2013,09,11,10,02,23.10
2013,09,11,10,03,23.10
2013,09,11,10,04,23.10
2013,09,11,10,05,23.20
2013,09,11,10,06,23.20
2013,09,11,10,07,23.30
2013,09,11,10,08,23.30
2013,09,11,10,09,23.30
2013,09,11,10,10,23.30
2013,09,11,10,11,23.30
2013,09,11,10,12,23.40
2013,09,11,10,13,23.50
2013,09,11,10,14,23.50
2013,09,11,10,15,23.60
2013,09,11,10,16,23.60
2013,09,11,10,17,23.70
2013,09,11,10,18,23.70
2013,09,11,10,19,23.70
2013,09,11,10,20,23.70
2013,09,11,10,21,23.70
2013,09,11,10,22,23.80
2013,09,11,10,23,23.80
2013,09,11,10,24,23.80
2013,09,11,10,25,23.80
2013,09,11,10,26,23.80
2013,09,11,10,27,23.90
2013,09,11,10,28,23.90
2013,09,11,10,29,23.90
2013,09,11,10,30,24.00
2013,09,11,10,31,24.00
2013,09,11,10,32,24.10
2013,09,11,10,33,24.10
2013,09,11,10,34,24.10
2013,09,11,10,35,24.10
2013,09,11,10,36,24.10
2013,09,11,10,37,24.20
2013,09,11,10,38,24.20
2013,09,11,10,39,24.20
2013,09,11,10,40,24.20
2013,09,11,10,41,24.20
2013,09,11,10,42,24.20
2013,09,11,10,43,24.20
2013,09,11,10,44,24.20
2013,09,11,10,45,24.20
2013,09,11,10,46,24.20
2013,09,11,10,47,24.20
2013,09,11,10,48,24.20
2013,09,11,10,49,24.20
2013,09,11,10,50,24.20
2013,09,11,10,51,24.20
2013,09,11,10,52,24.30
2013,09,11,10,53,24.30
2013,09,11,10,54,24.30
2013,09,11,10,55,24.40
2013,09,11,10,56,24.50
2013,09,11,10,57,24.50
2013,09,11,10,58,24.50
2013,09,11,10,59,24.50
2013,09,11,11,00,24.60
2013,09,11,11,01,24.60
2013,09,11,11,02,24.70
2013,09,11,11,03,24.70
2013,09,11,11,04,24.70
2013,09,11,11,05,24.70
2013,09,11,11,06,24.70
2013,09,11,11,07,24.70
2013,09,11,11,08,24.70
2013,09,11,11,09,24.80
2013,09,11,11,10,24.80
2013,09,11,11,11,24.80
2013,09,11,11,12,24.80
2013,09,11,11,13,24.80
2013,09,11,11,14,24.80
2013,09,11,11,15,24.80
2013,09,11,11,16,24.90
2013,09,11,11,17,24.90
2013,09,11,11,18,24.90
2013,09,11,11,19,25.00
2013,09,11,11,20,25.00
2013,09,11,11,21,25.00
2013,09,11,11,22,25.10
2013,09,11,11,23,25.10
2013,09,11,11,24,25.10
2013,09,11,11,25,25.20
2013,09,11,11,26,25.20
2013,09,11,11,27,25.10
2013,09,11,11,28,25.10
2013,09,11,11,29,25.00
2013,09,11,11,30,25.00
2013,09,11,11,31,24.90
2013,09,11,11,32,24.90
2013,09,11,11,33,24.90
2013,09,11,11,34,25.00
2013,09,11,11,35,25.00
2013,09,11,11,36,25.00
2013,09,11,11,37,25.00
2013,09,11,11,38,25.10
2013,09,11,11,39,25.10
2013,09,11,11,40,25.20
2013,09,11,11,41,25.20
2013,09,11,11,42,25.20
2013,09,11,11,43,25.20
2013,09,11,11,44,25.30
2013,09,11,11,45,25.30
2013,09,11,11,46,25.40
2013,09,11,11,47,25.40
2013,09,11,11,48,25.40
2013,09,11,11,49,25.50
2013,09,11,11,50,25.50
2013,09,11,11,51,25.50
2013,09,11,11,52,25.50
2013,09,11,11,53,25.60
2013,09,11,11,54,25.60
2013,09,11,11,55,25.70
2013,09,11,11,56,25.70
2013,09,11,11,57,25.70
2013,09,11,11,58,25.70
2013,09,11,11,59,25.80
2013,09,11,12,00,25.80
2013,09,11,12,01,25.80
2013,09,11,12,02,25.80
2013,09,11,12,03,25.80
2013,09,11,12,04,25.80
2013,09,11,12,05,25.80
2013,09,11,12,06,25.80
2013,09,11,12,07,25.80
2013,09,11,12,08,25.80
2013,09,11,12,09,25.80
2013,09,11,12,10,25.80
2013,09,11,12,11,25.90
2013,09,11,12,12,25.90
2013,09,11,12,13,25.90
2013,09,11,12,14,26.00
2013,09,11,12,15,26.00
2013,09,11,12,16,26.00
2013,09,11,12,17,26.10
2013,09,11,12,18,26.10
2013,09,11,12,19,26.00
2013,09,11,12,20,26.00
2013,09,11,12,21,26.00
2013,09,11,12,22,25.90
2013,09,11,12,23,25.90
2013,09,11,12,24,25.90
2013,09,11,12,25,25.90
2013,09,11,12,26,25.90
2013,09,11,12,27,26.00
2013,09,11,12,28,26.00
2013,09,11,12,29,26.10
2013,09,11,12,30,26.10
2013,09,11,12,31,26.20
2013,09,11,12,32,26.20
2013,09,11,12,33,26.30
2013,09,11,12,34,26.30
2013,09,11,12,35,26.30
2013,09,11,12,36,26.40
2013,09,11,12,37,26.40
2013,09,11,12,38,26.50
2013,09,11,12,39,26.50
2013,09,11,12,40,26.60
2013,09,11,12,41,26.60
2013,09,11,12,42,26.60
2013,09,11,12,43,26.50
2013,09,11,12,44,26.40
2013,09,11,12,45,26.40
2013,09,11,12,46,26.30
2013,09,11,12,47,26.30
2013,09,11,12,48,26.30
2013,09,11,12,49,26.30
2013,09,11,12,50,26.30
2013,09,11,12,51,26.30
2013,09,11,12,52,26.40
2013,09,11,12,53,26.40
2013,09,11,12,54,26.40
2013,09,11,12,55,26.40
2013,09,11,12,56,26.40
2013,09,11,12,57,26.40
2013,09,11,12,58,26.40
2013,09,11,12,59,26.40
2013,09,11,13,00,26.40
2013,09,11,13,01,26.40
2013,09,11,13,02,26.40
2013,09,11,13,03,26.40
2013,09,11,13,04,26.40
2013,09,11,13,05,26.40
2013,09,11,13,06,26.40
2013,09,11,13,07,26.40
2013,09,11,13,08,26.40
2013,09,11,13,09,26.50
2013,09,11,13,10,26.50
2013,09,11,13,11,26.60
2013,09,11,13,12,26.60
2013,09,11,13,13,26.60
2013,09,11,13,14,26.60
2013,09,11,13,15,26.60
2013,09,11,13,16,26.60
2013,09,11,13,17,26.70
2013,09,11,13,18,26.70
2013,09,11,13,19,26.70
2013,09,11,13,20,26.70
2013,09,11,13,21,26.70
2013,09,11,13,22,26.80
2013,09,11,13,23,26.80
2013,09,11,13,24,26.80
2013,09,11,13,25,26.80
2013,09,11,13,26,26.80
2013,09,11,13,27,26.80
2013,09,11,13,28,26.80
2013,09,11,13,29,26.80
2013,09,11,13,30,26.80
2013,09,11,13,31,26.80
2013,09,11,13,32,26.80
2013,09,11,13,33,26.80
2013,09,11,13,34,26.80
2013,09,11,13,35,26.80
2013,09,11,13,36,26.80
2013,09,11,13,37,26.80
2013,09,11,13,38,26.80
2013,09,11,13,39,26.90
2013,09,11,13,40,26.90
2013,09,11,13,41,26.90
2013,09,11,13,42,26.90
2013,09,11,13,43,27.00
2013,09,11,13,44,27.00
2013,09,11,13,45,27.10
2013,09,11,13,46,27.10
2013,09,11,13,47,27.20
2013,09,11,13,48,27.20
2013,09,11,13,49,27.20
2013,09,11,13,50,27.20
2013,09,11,13,51,27.10
2013,09,11,13,52,27.20
2013,09,11,13,53,27.20
2013,09,11,13,54,27.20
2013,09,11,13,55,27.20
2013,09,11,13,56,27.20
2013,09,11,13,57,27.30
2013,09,11,13,58,27.40
2013,09,11,13,59,27.40
2013,09,11,14,00,27.50
2013,09,11,14,01,27.60
2013,09,11,14,02,27.60
2013,09,11,14,03,27.60
2013,09,11,14,04,27.60
2013,09,11,14,05,27.60
2013,09,11,14,06,27.60
2013,09,11,14,07,27.60
2013,09,11,14,08,27.60
2013,09,11,14,09,27.60
2013,09,11,14,10,27.60
2013,09,11,14,11,27.60
2013,09,11,14,12,27.70
2013,09,11,14,13,27.60
2013,09,11,14,14,27.60
2013,09,11,14,15,27.60
2013,09,11,14,16,27.60
2013,09,11,14,17,27.70
2013,09,11,14,18,27.70
2013,09,11,14,19,27.80
2013,09,11,14,20,27.80
2013,09,11,14,21,27.80
2013,09,11,14,22,27.90
2013,09,11,14,23,27.90
2013,09,11,14,24,28.00
2013,09,11,14,25,28.00
2013,09,11,14,26,28.10
2013,09,11,14,27,28.20
2013,09,11,14,28,28.20
2013,09,11,14,29,28.30
2013,09,11,14,30,28.30
2013,09,11,14,31,28.40
2013,09,11,14,32,28.40
2013,09,11,14,33,28.50
2013,09,11,14,34,28.60
2013,09,11,14,35,28.60
2013,09,11,14,36,28.60
2013,09,11,14,37,28.60
2013,09,11,14,38,28.70
2013,09,11,14,39,28.80
2013,09,11,14,40,28.80
2013,09,11,14,41,28.80
2013,09,11,14,42,28.80
2013,09,11,14,43,28.90
2013,09,11,14,44,28.90
2013,09,11,14,45,28.90
2013,09,11,14,46,28.90
2013,09,11,14,47,28.90
2013,09,11,14,48,28.90
2013,09,11,14,49,28.90
2013,09,11,14,50,28.90
2013,09,11,14,51,28.90
2013,09,11,14,52,28.80
2013,09,11,14,53,28.80
2013,09,11,14,54,28.80
2013,09,11,14,55,28.80
2013,09,11,14,56,28.80
2013,09,11,14,57,28.90
2013,09,11,14,58,28.90
2013,09,11,14,59,29.00
2013,09,11,15,00,29.00
2013,09,11,15,01,29.00
2013,09,11,15,02,29.00
2013,09,11,15,03,29.10
2013,09,11,15,04,29.10
2013,09,11,15,05,29.10
2013,09,11,15,06,29.20
2013,09,11,15,07,29.20
2013,09,11,15,08,29.20
2013,09,11,15,09,29.20
2013,09,11,15,10,29.20
2013,09,11,15,11,29.20
2013,09,11,15,12,29.20
2013,09,11,15,13,29.10
2013,09,11,15,14,29.00
2013,09,11,15,15,29.00
2013,09,11,15,16,29.00
2013,09,11,15,17,29.00
2013,09,11,15,18,29.00
2013,09,11,15,19,29.10
2013,09,11,15,20,29.10
2013,09,11,15,21,29.20
2013,09,11,15,22,29.30
2013,09,11,15,23,29.30
2013,09,11,15,24,29.40
2013,09,11,15,25,29.40
2013,09,11,15,26,29.40
2013,09,11,15,27,29.30
2013,09,11,15,28,29.20
2013,09,11,15,29,29.20
2013,09,11,15,30,29.10
2013,09,11,15,31,29.00
2013,09,11,15,32,29.00
2013,09,11,15,33,29.00
2013,09,11,15,34,29.00
2013,09,11,15,35,29.00
2013,09,11,15,36,29.00
2013,09,11,15,37,29.00
2013,09,11,15,38,29.00
2013,09,11,15,39,29.10
2013,09,11,15,40,29.10
2013,09,11,15,41,29.10
2013,09,11,15,42,29.10
2013,09,11,15,43,29.10
2013,09,11,15,44,29.20
2013,09,11,15,45,29.30
2013,09,11,15,46,29.30
2013,09,11,15,47,29.40
2013,09,11,15,48,29.40
2013,09,11,15,49,29.30
2013,09,11,15,50,29.30
2013,09,11,15,51,29.20
2013,09,11,15,52,29.20
2013,09,11,15,53,29.20
2013,09,11,15,54,29.10
2013,09,11,15,55,29.20
2013,09,11,15,56,29.20
2013,09,11,15,57,29.20
2013,09,11,15,58,29.30
2013,09,11,15,59,29.30
2013,09,11,16,00,29.40
2013,09,11,16,01,29.40
2013,09,11,16,02,29.50
2013,09,11,16,03,29.50
2013,09,11,16,04,29.60
2013,09,11,16,05,29.60
2013,09,11,16,06,29.60
2013,09,11,16,07,29.60
2013,09,11,16,08,29.60
2013,09,11,16,09,29.60
2013,09,11,16,10,29.60
2013,09,11,16,11,29.70
2013,09,11,16,12,29.70
2013,09,11,16,13,29.70
2013,09,11,16,14,29.70
2013,09,11,16,15,29.70
2013,09,11,16,16,29.80
2013,09,11,16,17,29.80
2013,09,11,16,18,29.80
2013,09,11,16,19,29.70
2013,09,11,16,20,29.40
2013,09,11,16,21,29.20
2013,09,11,16,22,28.90
2013,09,11,16,23,28.70
2013,09,11,16,24,28.50
2013,09,11,16,25,28.40
2013,09,11,16,26,28.30
2013,09,11,16,27,28.20
2013,09,11,16,28,28.10
2013,09,11,16,29,28.00
2013,09,11,16,30,28.00
2013,09,11,16,31,28.00
2013,09,11,16,32,28.00
2013,09,11,16,33,27.90
2013,09,11,16,34,27.90
2013,09,11,16,35,27.80
2013,09,11,16,36,27.70
2013,09,11,16,37,27.60
2013,09,11,16,38,27.50
2013,09,11,16,39,27.40
2013,09,11,16,40,27.40
2013,09,11,16,41,27.40
2013,09,11,16,42,27.40
2013,09,11,16,43,27.30
2013,09,11,16,44,27.30
2013,09,11,16,45,27.20
2013,09,11,16,46,27.20
2013,09,11,16,47,27.20
2013,09,11,16,48,27.10
2013,09,11,16,49,27.10
2013,09,11,16,50,27.00
2013,09,11,16,51,27.00
2013,09,11,16,52,26.90
2013,09,11,16,53,26.80
2013,09,11,16,54,26.70
2013,09,11,16,55,26.60
2013,09,11,16,56,26.50
2013,09,11,16,57,26.50
2013,09,11,16,58,26.50
2013,09,11,16,59,26.50
2013,09,11,17,00,26.40
2013,09,11,17,01,26.40
2013,09,11,17,02,26.30
2013,09,11,17,03,26.30
2013,09,11,17,04,26.20
2013,09,11,17,05,26.20
2013,09,11,17,06,26.20
2013,09,11,17,07,26.20
2013,09,11,17,08,26.20
2013,09,11,17,09,26.20
2013,09,11,17,10,26.20
2013,09,11,17,11,26.20
2013,09,11,17,12,26.20
2013,09,11,17,13,26.10
2013,09,11,17,14,26.10
2013,09,11,17,15,26.10
2013,09,11,17,16,26.00
2013,09,11,17,17,25.90
2013,09,11,17,18,25.90
2013,09,11,17,19,25.80